GFSWCAN_700_rhum_171.txt.gz
RH
66 36 31 31 30 27 26 25 24 23 21 21 22 26 17 24 41 51 59 62 59 55 54 57 57 58 58 56 59 58 61 56 58 56 65 76 71 73 53 57 50 54 60 68 80 77 73 60 61 66 70 72 72 77
79 46 39 35 35 38 38 39 40 41 47 48 29 33 29 39 54 66 66 70 69 66 66 66 67 64 63 64 67 66 68 69 70 65 65 75 68 73 66 68 64 65 63 62 68 66 70 66 73 79 82 86 88 92
97 81 68 65 61 61 67 69 68 60 58 56 56 72 61 72 72 76 76 77 79 79 76 75 72 76 76 74 72 75 66 68 66 73 78 83 85 94 91 78 82 86 85 79 72 69 71 87 84 78 77 80 79 80
97 97 97 98 97 93 88 88 87 86 89 94 99 96 91 90 90 91 89 91 95 95 91 83 88 89 82 76 79 77 64 60 56 68 78 80 92 85 83 89 95 92 89 78 87 87 87 91 93 98 78 77 83 99
97 97 98 97 97 97 100 98 96 96 89 86 84 86 90 95 99 99 98 98 98 98 91 87 87 85 73 80 85 68 61 65 61 64 66 77 94 91 96 99 98 97 58 71 66 94 98 96 87 83 81 88 76 72
97 98 98 97 96 96 98 99 99 98 93 88 85 79 75 93 90 52 49 93 88 77 100 100 86 76 70 72 69 65 69 57 61 76 79 90 99 98 98 99 97 67 89 93 99 93 92 92 93 90 88 78 73 74
96 96 95 97 96 96 96 96 96 96 95 92 89 65 63 56 72 85 98 93 82 79 98 99 91 79 55 52 45 46 49 54 58 63 76 92 89 97 98 100 72 61 64 96 98 96 100 94 79 72 67 66 64 60
96 96 95 95 95 96 95 94 92 86 88 86 74 51 57 51 87 64 79 98 95 96 88 95 99 93 82 70 63 65 71 69 68 71 91 100 95 100 100 46 56 83 90 80 68 60 62 66 67 60 42 35 25 21
96 96 95 95 95 94 89 80 54 41 37 49 80 94 71 77 80 81 91 96 97 97 97 94 92 88 77 72 82 79 67 65 64 74 77 81 83 98 45 48 56 61 66 70 68 63 60 56 27 19 18 18 19 18
97 90 88 66 74 85 69 44 42 32 17 15 14 20 59 83 73 75 88 78 80 100 97 92 92 91 80 89 93 88 90 89 87 84 75 74 62 37 28 41 46 52 68 70 65 61 27 17 17 17 19 22 26 25
90 91 65 42 52 65 49 37 32 26 20 20 18 19 24 25 38 61 87 88 86 86 78 66 58 66 77 90 96 99 99 92 88 94 82 98 67 33 37 34 43 47 55 67 45 18 19 17 22 26 26 29 34 37
38 48 43 18 31 70 86 87 62 49 38 32 29 32 41 54 64 60 70 60 49 54 47 35 44 50 58 70 96 99 100 95 95 96 92 94 35 29 32 37 37 37 56 29 18 19 20 24 26 34 40 44 49 52
29 22 18 14 16 40 77 87 98 97 86 73 52 56 55 60 79 73 75 69 62 62 56 60 62 61 62 65 98 88 97 98 96 97 97 45 37 20 19 41 38 51 22 19 20 23 21 26 30 38 44 48 58 64
72 44 36 25 24 67 80 85 98 99 97 92 78 69 56 52 52 64 65 60 66 66 68 64 62 64 67 73 91 94 100 96 94 100 60 36 29 18 18 34 25 34 33 27 26 26 30 34 40 45 50 60 58 54
52 28 32 36 34 66 89 92 100 98 99 95 79 64 54 46 50 54 57 60 58 59 58 57 53 52 80 92 88 98 95 83 84 46 32 35 22 22 22 28 38 32 31 33 37 42 47 53 57 58 56 57 51 48
52 29 24 28 31 36 58 97 99 97 98 97 78 60 49 53 61 57 52 43 41 40 43 45 44 50 74 85 84 82 86 51 39 36 32 29 30 37 41 40 41 41 43 46 50 56 57 55 54 54 56 53 44 36
69 54 28 25 23 27 42 57 98 98 97 98 85 63 57 52 50 47 46 44 42 42 42 47 55 58 78 96 78 63 35 24 36 36 32 34 40 43 50 54 56 56 59 63 62 54 51 50 52 52 45 37 32 32
74 86 53 33 28 26 29 37 58 97 96 96 82 76 70 68 63 55 47 53 51 48 42 43 50 59 68 47 40 26 32 37 44 53 53 50 50 46 50 53 53 52 44 38 30 28 32 33 33 31 33 33 35 36
97 93 76 55 49 40 33 27 38 90 95 96 96 88 86 77 74 72 56 56 59 58 59 59 54 42 31 28 30 38 46 53 61 64 57 45 46 46 42 32 19 20 27 34 40 47 51 56 58 58 60 65 64 64
94 90 84 82 76 64 54 48 37 50 70 79 81 96 91 87 80 75 73 71 72 72 70 66 52 44 41 50 58 56 62 67 68 55 45 49 51 37 24 27 34 40 46 48 50 53 55 53 56 66 71 74 71 67
100 97 89 88 81 78 77 68 54 41 53 60 65 86 94 89 88 75 73 74 75 70 55 45 44 43 49 51 53 55 50 51 52 58 56 44 30 35 42 42 46 43 46 52 57 63 64 67 76 87 90 91 94 96
93 87 83 80 81 85 76 64 62 51 41 52 56 58 86 96 76 71 72 72 63 52 48 50 48 46 45 46 47 46 50 67 64 40 40 54 62 60 54 57 56 54 62 70 72 72 74 82 85 88 94 96 99 100
68 74 84 98 100 93 88 76 75 61 51 46 34 40 53 82 87 83 82 65 61 56 53 47 39 42 46 40 27 27 33 42 49 53 53 66 74 80 77 69 71 74 76 70 70 76 79 83 92 98 98 98 98 97
98 97 95 100 96 98 92 75 65 59 57 45 58 85 56 61 67 74 71 61 55 51 40 43 49 45 32 38 48 56 61 64 56 53 67 75 75 71 74 74 76 78 76 76 77 80 90 96 100 100 99 99 100 100
100 99 98 90 91 96 94 74 68 79 72 80 84 96 77 59 61 69 70 62 47 45 43 36 36 44 47 51 57 63 74 75 72 66 73 82 80 77 73 72 69 72 79 79 90 95 98 98 98 98 98 99 98 97
98 94 88 82 87 80 70 64 67 84 89 97 97 95 69 57 71 86 67 50 50 33 30 39 46 48 51 58 61 64 69 71 73 72 75 80 82 80 73 68 70 75 94 99 98 98 100 100 100 100 100 100 100 99
92 73 74 65 68 60 62 67 73 81 94 99 81 67 78 95 72 58 54 54 47 36 36 44 46 49 54 59 67 72 67 69 72 73 75 76 79 80 82 84 91 96 98 98 99 97 94 95 98 100 100 100 100 99
75 70 60 70 60 56 75 90 82 90 95 91 83 78 67 61 57 56 57 49 40 45 47 47 51 59 62 68 72 69 72 75 77 77 73 78 80 82 94 99 98 97 98 100 97 95 96 98 100 99 100 100 100 100
74 70 63 69 97 100 97 97 100 94 84 74 71 64 56 45 42 40 41 46 52 57 63 69 70 66 73 77 76 77 73 69 70 66 62 64 67 87 98 97 98 100 100 100 100 100 99 98 98 99 99 98 98 96
96 98 96 92 90 96 100 97 86 83 83 66 39 40 52 61 70 77 82 86 88 89 92 92 92 95 90 87 89 92 91 80 74 71 69 66 70 93 98 99 94 90 85 82 83 87 89 87 85 84 82 81 82 83
80 86 70 83 86 87 91 93 89 46 39 62 75 74 75 71 72 84 91 98 99 98 98 98 98 99 98 87 74 71 70 76 77 78 75 82 96 98 99 96 83 79 73 68 69 69 72 74 69 70 71 75 78 80
35 43 77 58 37 34 35 39 57 68 66 67 73 74 76 85 90 87 96 98 97 99 100 95 91 95 93 90 88 79 72 70 69 74 86 96 98 98 99 93 83 84 86 84 82 81 78 74 72 71 71 73 75 78
42 45 48 52 58 71 76 74 69 69 67 79 87 86 88 88 84 93 96 90 94 95 96 97 98 96 91 83 78 76 72 71 77 90 94 98 99 97 94 95 88 80 79 83 84 85 86 85 84 83 83 84 87 91

GFSWCAN_700_rhum_177.txt.gz
RH
57 48 90 100 99 74 42 48 51 48 41 31 24 25 36 29 23 20 19 17 17 20 20 28 43 50 54 53 50 49 53 53 53 55 58 57 62 61 59 57 52 50 47 50 58 74 70 56 62 64 64 70 74 75
44 38 24 98 100 99 48 36 38 37 28 25 25 31 39 31 26 23 21 21 21 26 43 35 40 47 57 60 62 63 63 63 64 60 62 69 72 71 64 63 57 60 56 55 52 54 52 64 73 73 74 75 76 80
18 25 42 79 100 99 66 46 33 29 28 29 29 40 41 31 28 26 27 26 38 46 58 62 50 58 65 66 68 72 73 74 73 74 75 78 81 82 78 73 70 68 64 61 55 55 59 66 68 70 72 73 71 80
37 47 81 100 99 100 79 65 48 35 36 34 41 47 39 35 35 33 34 53 58 68 68 74 69 71 79 85 90 94 95 91 90 88 89 94 97 94 88 76 73 68 63 56 59 59 60 66 64 61 61 69 76 96
82 96 99 99 99 98 96 88 88 72 48 54 54 47 42 45 47 60 79 88 85 83 84 90 93 92 95 96 97 98 98 97 97 97 95 95 89 82 84 83 80 64 54 58 58 60 57 55 62 71 84 80 80 72
97 97 97 98 97 98 98 98 97 96 95 92 67 54 59 65 89 88 98 93 99 97 98 98 98 97 97 96 96 96 97 97 97 93 90 90 86 84 82 82 70 54 54 50 58 57 68 85 88 100 92 97 98 88
97 97 97 97 98 98 97 96 97 98 96 91 96 89 97 98 97 96 96 93 92 98 97 98 97 94 95 96 96 96 97 96 96 94 86 80 80 97 99 100 52 52 50 55 68 67 95 99 83 77 95 72 62 63
95 96 96 96 97 98 98 97 98 96 97 96 96 96 97 97 98 96 97 97 97 98 97 96 96 89 80 88 96 96 95 95 94 94 91 77 84 91 96 48 47 43 41 50 62 68 67 82 84 79 80 76 53 28
96 97 96 96 97 97 96 97 98 96 96 98 97 98 98 97 96 94 96 96 97 97 96 95 99 91 91 81 81 92 95 96 88 82 76 79 88 83 38 38 44 47 53 43 40 40 43 55 57 65 59 30 20 18
96 95 96 96 97 97 97 97 97 97 97 95 95 96 97 98 97 96 96 97 96 97 96 97 96 93 92 87 89 89 90 89 87 83 79 79 68 33 35 39 37 36 39 37 30 32 44 55 69 28 22 21 19 17
96 96 96 96 96 96 96 96 96 96 96 96 97 96 95 97 96 97 96 97 96 97 98 100 100 95 95 95 96 96 96 91 84 86 78 76 40 32 31 32 34 36 31 21 18 31 38 62 32 23 21 20 20 24
96 96 95 95 96 96 96 95 95 95 95 95 95 96 96 96 96 95 96 95 91 91 87 89 92 97 95 96 99 97 93 82 80 90 86 68 35 40 40 42 38 32 25 16 16 22 37 52 30 25 22 20 22 28
94 94 96 94 94 96 97 95 95 96 93 93 87 85 88 90 87 90 66 62 57 41 41 43 55 57 72 74 74 74 79 89 84 85 71 37 44 49 43 35 36 20 18 19 36 54 30 25 25 34 38 36 37 35
78 90 93 95 94 95 98 96 96 95 93 67 54 48 41 40 51 53 44 40 37 32 34 36 42 50 58 66 65 65 81 77 84 82 44 45 51 43 40 32 24 23 24 24 26 33 37 39 39 37 37 37 37 25
86 75 74 84 93 96 96 96 97 96 93 89 72 56 57 56 55 52 52 46 50 55 54 58 62 58 58 56 53 58 67 75 76 49 49 54 49 53 36 32 30 31 31 28 26 37 38 38 38 36 29 20 19 33
87 60 44 42 66 91 95 95 94 97 97 92 67 59 50 47 43 41 43 57 61 64 63 59 50 42 43 40 45 50 73 50 37 48 57 61 54 48 45 41 38 36 35 39 41 42 44 37 23 21 21 27 37 47
90 78 53 43 28 38 54 93 98 96 97 96 89 66 53 46 51 55 53 60 58 55 43 35 30 31 36 38 41 42 34 37 41 42 43 43 40 38 40 41 45 47 46 47 47 41 27 30 35 38 40 40 45 49
87 78 62 47 28 26 35 50 86 96 96 97 99 94 88 81 66 58 62 54 46 42 40 40 37 35 34 33 35 42 49 52 48 40 35 40 42 44 46 45 46 51 50 41 33 42 44 43 48 55 58 57 57 63
85 77 73 57 38 28 27 26 35 38 49 64 90 82 78 95 94 76 70 59 56 59 58 49 48 38 41 48 46 51 55 49 42 45 46 45 45 44 44 47 43 35 43 50 52 58 61 61 62 70 73 73 70 67
88 91 92 83 68 58 41 32 27 24 22 33 64 86 79 76 80 97 87 73 67 74 67 60 39 46 57 64 59 46 45 45 41 36 34 38 42 31 26 28 39 47 49 55 62 66 65 65 71 74 72 72 75 80
90 88 89 85 82 78 69 59 49 42 34 28 24 31 49 80 78 92 97 94 82 71 44 41 50 57 66 60 54 48 46 44 40 42 44 31 28 36 40 47 56 62 68 68 73 72 76 72 67 67 78 89 95 96
83 81 87 83 81 75 68 63 64 62 58 52 44 54 63 79 64 67 95 97 92 56 44 59 61 63 60 53 55 48 42 39 45 40 34 38 42 47 56 64 68 71 76 78 76 71 68 70 83 96 97 97 98 96
96 89 87 93 90 79 68 63 65 68 66 60 56 53 48 62 70 61 64 60 56 56 72 65 64 61 55 50 46 42 41 45 38 40 45 48 49 61 61 64 71 73 71 68 68 68 79 96 99 100 99 97 95 92
100 95 95 88 81 75 64 62 64 60 61 65 63 63 59 58 77 76 61 56 60 70 68 64 57 48 48 43 43 47 45 40 42 44 51 47 56 60 58 65 72 74 66 62 67 91 97 100 100 99 98 96 94 93
85 71 65 69 66 67 70 71 72 77 75 70 72 70 74 72 59 56 55 55 56 53 48 45 44 42 33 27 32 35 37 39 41 47 58 63 64 61 69 73 62 60 58 68 91 89 91 96 97 95 97 97 96 96
79 81 82 86 81 76 79 82 92 95 86 82 81 79 74 86 80 70 61 55 66 60 51 49 48 43 40 36 37 39 39 42 46 61 68 75 77 75 66 53 48 56 72 92 92 85 77 83 85 83 90 92 94 96
80 89 83 81 78 78 92 97 95 94 97 98 94 96 93 99 89 72 67 70 62 58 58 59 59 52 46 44 44 45 49 56 73 79 82 88 86 72 57 53 59 68 86 95 92 79 69 69 72 75 77 84 82 82
93 83 83 79 82 94 91 100 96 80 97 97 100 96 98 99 87 80 78 76 74 69 62 53 50 56 66 74 80 87 91 92 95 96 98 93 81 71 62 65 67 88 94 98 90 78 74 70 66 65 70 74 76 78
82 75 75 77 82 91 80 93 98 86 70 98 98 98 97 92 88 78 55 49 67 84 87 90 94 92 92 92 93 93 93 94 93 90 85 73 65 62 60 63 88 96 97 96 93 85 85 76 68 69 72 72 76 79
80 76 79 91 79 74 85 99 97 97 97 98 98 98 90 64 56 69 82 89 89 90 86 83 85 90 91 92 94 99 98 92 86 79 68 60 53 58 62 83 96 97 97 90 90 95 93 91 95 89 83 82 84 90
74 77 79 85 97 98 98 97 97 97 97 98 78 55 57 68 76 82 93 96 88 82 79 76 78 77 78 80 79 72 76 84 82 74 63 61 63 70 87 97 96 96 97 93 95 96 97 97 97 98 98 98 99 100
54 68 74 76 93 83 82 85 81 81 67 63 66 74 76 85 97 97 94 81 81 74 72 83 91 93 92 93 92 89 78 69 65 67 70 77 89 98 98 97 96 97 98 98 98 98 98 98 99 99 98 99 99 98
38 38 40 44 44 48 50 56 61 67 69 74 79 76 72 83 97 93 82 78 77 85 97 97 94 94 93 89 88 89 90 87 84 84 86 91 94 95 96 97 97 98 98 98 98 98 98 99 98 98 98 98 98 98

GFSWCAN_700_rhum_180.txt.gz
RH
42 47 21 6 28 46 33 44 86 100 87 56 26 13 15 25 31 22 28 29 22 19 17 18 19 22 32 42 44 44 51 51 52 53 53 52 54 53 54 52 50 50 48 46 53 66 61 52 54 53 52 53 61 69
62 54 57 43 7 29 46 23 71 97 99 92 54 32 25 33 33 23 28 32 26 23 21 20 21 22 26 42 50 47 52 56 60 61 61 62 62 66 61 62 57 60 56 52 51 50 52 62 66 66 66 70 74 76
72 64 54 34 12 3 8 22 40 99 99 99 65 54 44 41 28 22 30 36 30 27 26 24 26 32 38 47 57 66 67 64 67 74 80 77 74 71 69 69 69 69 66 64 65 58 59 66 66 69 74 78 77 75
82 80 75 49 6 2 2 8 20 96 99 99 91 53 48 41 24 24 35 38 33 35 42 40 37 46 49 56 62 70 81 91 95 96 97 96 95 91 91 89 92 85 80 70 65 64 68 69 66 68 72 66 62 73
90 91 58 46 19 4 5 20 40 97 99 100 98 53 42 34 30 45 47 41 45 53 66 59 48 59 58 69 77 88 91 96 97 98 97 98 95 98 98 98 89 72 71 79 78 63 59 52 57 54 54 63 75 71
97 96 90 60 46 22 26 37 54 99 98 99 97 48 40 34 57 65 67 55 72 78 82 87 80 75 77 76 86 95 98 98 98 97 97 97 94 96 96 94 67 64 66 66 54 49 44 52 48 41 76 96 95 68
97 95 98 97 75 49 41 38 74 98 98 98 94 77 62 87 80 89 82 86 84 91 100 100 98 85 84 88 98 97 98 97 97 97 97 98 93 98 97 81 58 71 65 50 42 46 48 52 52 70 74 60 65 77
96 95 96 97 97 98 98 98 98 97 97 98 98 98 97 98 99 99 96 99 95 99 98 98 97 99 92 98 99 97 97 97 97 97 97 89 92 97 96 61 68 71 60 52 46 44 44 39 39 48 50 58 72 76
96 96 95 96 97 96 96 97 97 97 97 98 97 98 98 98 98 97 97 98 97 96 98 97 97 96 90 90 99 97 97 97 96 97 96 97 100 83 64 68 67 49 39 35 31 26 26 28 31 41 48 63 67 33
96 96 95 95 96 97 97 97 97 97 98 98 98 98 97 97 97 98 97 97 97 97 97 96 97 92 87 89 97 97 96 96 96 93 92 100 95 60 53 44 39 36 30 26 24 24 22 20 28 39 48 49 29 24
97 95 96 95 92 94 96 96 97 98 97 97 97 97 94 98 97 97 96 96 96 96 96 97 96 94 93 96 96 96 96 95 94 94 82 80 55 36 42 39 34 27 23 22 24 22 20 22 28 48 38 25 23 23
94 96 95 95 93 90 93 95 96 97 97 96 96 97 96 96 96 96 96 95 95 95 95 97 93 97 96 95 96 96 94 87 82 82 72 60 44 43 43 37 28 23 23 26 26 19 16 21 32 52 47 37 27 26
80 96 95 95 93 88 85 93 95 96 96 96 96 96 96 96 96 95 95 95 94 94 94 94 96 96 97 96 95 93 82 79 66 70 66 48 54 50 37 31 33 33 31 23 19 19 22 29 43 39 43 48 48 34
77 90 96 96 96 95 93 90 91 95 95 93 94 95 96 96 95 93 94 82 72 84 94 95 95 95 94 93 70 67 79 73 73 73 52 53 49 44 45 44 39 32 27 27 28 31 31 31 30 32 36 36 35 32
74 66 81 96 96 96 96 97 96 90 90 92 94 94 95 87 91 95 93 90 92 90 76 61 63 49 53 59 55 54 64 72 70 56 50 44 47 50 51 50 46 43 40 38 37 34 32 35 36 33 36 32 25 28
69 54 48 64 93 96 96 96 98 97 94 94 94 95 95 91 83 77 71 68 56 53 56 61 58 58 53 42 46 46 53 46 50 43 46 48 48 44 44 45 43 38 34 32 35 38 39 42 42 33 26 37 43 48
74 56 46 38 33 71 94 96 96 94 96 97 95 78 63 64 62 58 63 68 68 68 62 48 41 31 35 33 32 26 25 31 33 32 31 30 29 30 32 31 32 34 36 38 39 41 40 33 34 39 52 55 57 59
73 68 55 43 30 26 37 84 92 96 96 97 97 94 83 60 55 58 70 75 67 62 47 31 25 23 24 24 26 34 38 39 38 39 36 35 37 39 37 34 35 35 33 28 25 29 38 44 52 60 60 59 57 60
70 71 65 55 38 24 25 32 46 68 88 93 96 96 97 95 88 69 64 62 52 43 40 33 30 30 37 44 43 40 37 32 33 35 38 40 39 36 34 34 29 25 28 36 46 53 58 68 73 72 69 65 63 66
80 86 73 63 56 43 32 27 22 22 42 83 80 84 87 91 94 95 77 66 53 52 47 37 34 46 51 57 58 47 38 33 33 32 36 36 36 38 33 30 32 38 49 55 60 70 72 68 66 62 65 71 86 91
79 82 74 68 63 57 54 50 43 36 32 26 26 47 78 80 82 91 90 96 80 58 48 43 50 60 68 69 59 51 45 44 43 39 34 34 38 32 32 37 47 53 54 57 59 60 61 60 61 66 88 94 91 91
80 71 75 71 69 62 57 54 52 52 49 43 39 42 46 50 71 73 81 82 82 72 56 62 86 86 76 66 60 51 47 43 38 37 40 35 30 35 37 40 50 52 52 59 59 55 54 60 87 95 92 91 93 94
88 84 86 81 73 62 56 50 54 56 54 55 53 50 44 45 73 78 74 67 65 81 96 95 95 80 69 64 57 55 50 45 43 44 36 40 44 46 45 49 52 54 59 60 52 52 68 95 96 91 91 92 89 91
98 95 85 74 66 58 48 48 55 56 63 67 60 61 52 48 48 65 61 51 70 70 66 66 75 75 66 64 55 44 42 42 45 38 38 40 42 52 53 58 63 67 63 49 50 68 92 94 84 79 78 71 77 82
92 88 78 56 45 47 52 54 58 75 77 84 82 81 78 66 54 46 52 55 57 71 67 74 74 70 58 41 34 29 28 32 37 40 40 40 45 60 68 69 77 73 54 46 58 86 91 78 68 62 61 66 73 77
65 65 64 69 65 70 75 81 87 99 90 86 97 89 74 76 74 64 54 80 80 78 76 63 58 53 47 49 49 45 44 42 42 43 45 53 72 79 73 72 73 59 47 49 76 88 85 73 62 54 62 68 71 74
67 70 73 78 69 65 84 98 94 90 94 99 98 97 99 90 86 69 75 84 86 73 65 62 64 64 56 49 51 58 69 77 82 86 91 91 91 90 84 81 67 49 47 63 87 89 80 73 67 60 64 65 61 66
71 61 62 65 67 72 90 88 92 98 98 98 97 97 93 98 98 98 95 87 75 60 61 68 74 77 82 88 90 91 92 94 95 96 96 96 98 88 82 73 54 50 54 80 90 88 80 79 80 81 74 70 73 76
81 71 68 73 86 87 90 85 93 99 95 94 98 97 98 98 94 91 68 63 85 86 85 86 84 79 74 71 72 73 75 76 83 89 96 97 97 90 73 58 55 59 80 96 100 89 85 87 88 88 87 89 93 96
77 79 85 87 96 96 72 80 98 99 96 99 94 95 94 79 64 58 75 86 92 93 89 80 74 69 70 75 79 84 88 85 76 66 60 60 59 56 54 59 68 88 95 95 95 96 96 97 98 98 98 98 99 99
79 80 84 87 90 100 100 100 96 100 97 95 94 88 74 62 68 80 93 98 97 84 79 70 70 81 87 89 89 90 99 95 90 76 64 61 61 65 72 84 92 93 94 93 94 96 97 98 98 98 98 99 98 98
76 65 71 78 83 93 96 96 97 98 99 99 90 74 80 83 88 89 98 97 87 79 77 82 93 93 93 95 90 86 86 86 86 85 84 85 90 95 99 100 100 96 94 95 97 98 98 98 98 98 98 99 99 98
39 42 42 64 59 46 48 49 56 62 65 69 75 81 83 85 94 95 99 93 82 83 91 96 95 88 89 90 83 85 85 87 89 90 93 96 96 94 94 96 95 94 96 98 99 99 98 98 98 97 98 98 97 97

GFSWCAN_700_rhum_183.txt.gz
RH
5 4 5 12 21 23 16 9 5 3 3 4 31 100 97 51 11 7 8 14 26 28 27 27 24 19 17 20 25 32 42 46 48 50 50 50 50 49 50 48 46 48 48 49 53 57 54 50 49 50 50 51 58 60
8 8 10 25 45 50 39 32 18 7 3 5 5 77 100 100 67 11 9 15 25 32 31 30 28 23 19 21 30 40 43 46 51 54 56 55 57 60 57 58 56 57 54 51 52 52 56 61 59 59 62 66 68 70
20 32 47 52 57 57 56 51 43 17 8 3 9 22 100 100 100 56 11 12 27 34 35 34 32 27 23 22 28 38 43 47 53 59 64 71 76 78 71 66 64 61 61 70 71 70 65 68 66 67 71 77 76 70
45 63 63 68 71 70 69 70 51 24 10 5 6 42 98 98 99 100 32 15 29 44 50 39 36 34 28 24 31 39 46 57 63 68 72 77 90 95 93 80 77 78 80 90 89 89 89 77 77 77 72 66 62 60
68 61 75 86 83 84 84 54 29 22 3 4 4 36 84 99 98 99 75 22 29 48 52 58 42 37 32 33 35 47 65 70 72 74 78 82 94 98 97 96 94 82 94 98 96 89 84 79 65 56 50 55 59 49
89 87 84 86 95 88 82 75 60 29 7 4 4 26 70 99 98 97 98 73 36 57 72 94 70 49 44 45 67 73 79 81 81 85 94 98 97 99 97 97 80 93 96 92 78 71 65 59 50 44 43 45 44 45
99 95 90 94 95 97 79 57 54 57 26 22 4 34 90 99 98 97 98 86 65 100 100 100 100 71 72 79 81 86 84 89 85 96 98 98 98 98 98 94 82 95 92 77 64 54 44 37 35 34 34 36 36 41
96 96 96 95 95 98 43 23 23 52 34 28 9 59 98 98 97 98 98 100 100 89 99 99 96 95 76 76 87 81 82 93 98 98 97 97 98 97 95 82 85 80 60 53 48 38 32 30 29 30 29 30 34 40
97 98 96 94 95 96 99 94 51 16 11 10 51 98 97 97 97 97 98 98 98 95 98 95 93 95 94 82 92 99 98 98 97 97 97 96 96 96 93 92 85 71 64 43 33 29 27 26 25 24 22 24 23 35
97 100 96 94 94 95 97 99 94 66 57 97 97 97 97 98 98 98 98 97 98 98 93 97 94 98 98 91 95 100 98 97 97 96 97 96 96 95 95 93 80 59 36 28 22 21 21 20 19 18 17 16 24 39
90 100 98 96 94 94 96 97 98 98 97 97 97 96 95 95 98 98 97 97 97 97 97 98 100 97 98 98 99 99 96 96 96 95 96 95 82 78 73 60 44 34 25 22 22 21 22 23 21 17 18 22 31 37
89 94 97 96 86 89 94 96 97 97 97 96 94 94 98 97 96 96 96 96 96 95 94 91 94 99 97 98 96 96 96 95 94 90 93 80 66 52 49 44 33 26 25 24 22 24 25 21 19 21 24 30 40 43
96 92 95 95 88 85 93 95 95 96 96 96 96 95 96 96 96 96 96 96 94 94 90 91 93 96 97 96 96 95 95 95 90 79 70 58 52 53 44 36 32 30 27 31 33 30 25 24 26 30 31 30 29 29
90 95 98 98 92 80 81 94 95 95 95 94 94 95 95 96 95 94 90 83 81 79 86 95 100 95 96 96 95 94 95 66 59 65 58 53 51 46 41 37 30 33 40 41 40 38 36 34 30 29 30 32 36 36
78 62 90 100 96 85 77 81 92 95 95 94 95 94 95 96 96 94 90 89 91 94 97 97 96 95 96 94 94 89 86 60 61 54 48 44 41 35 30 33 36 36 35 32 29 27 27 28 29 31 35 32 29 26
59 46 46 75 93 92 92 72 76 84 92 93 94 96 96 96 96 96 96 96 96 96 96 96 94 94 94 86 67 51 45 41 40 40 39 35 26 26 30 30 30 30 30 30 30 31 32 33 27 22 21 31 38 44
59 49 44 33 40 89 94 87 83 75 93 95 96 96 95 96 96 96 95 95 95 95 93 92 92 90 85 64 41 38 30 28 29 27 23 24 26 27 27 27 31 31 29 30 31 28 22 23 31 39 43 47 51 52
70 57 51 40 31 28 83 89 78 94 97 98 96 95 95 94 94 94 94 95 95 93 76 70 53 36 25 24 23 23 22 21 23 24 27 30 32 31 32 32 30 28 29 27 21 26 39 44 45 46 46 46 44 46
62 58 56 50 39 23 32 77 84 94 97 97 97 96 95 92 87 87 93 94 94 76 45 28 23 23 20 20 22 27 28 23 23 26 30 34 35 35 33 30 27 27 21 20 31 41 40 41 46 50 49 48 49 68
76 61 54 54 49 32 25 25 28 48 91 90 88 96 96 96 93 84 82 73 66 48 40 38 37 35 33 35 38 33 31 31 36 39 40 40 35 31 29 29 25 18 18 29 43 46 45 51 53 46 48 72 84 81
74 70 61 55 50 43 45 40 32 33 41 52 87 91 86 86 93 96 84 72 62 53 50 49 56 61 67 68 60 44 40 43 44 42 40 38 33 33 33 25 21 26 30 32 38 49 55 49 43 55 81 82 71 71
86 78 62 54 46 43 45 46 48 45 44 39 35 32 47 63 78 86 92 88 83 84 71 64 71 72 72 73 63 48 46 49 46 41 35 32 35 35 30 33 38 40 41 47 49 54 52 44 58 82 75 62 58 60
81 72 58 51 51 50 49 46 47 45 49 51 49 43 40 40 60 64 76 79 85 93 93 95 94 89 84 74 62 56 56 57 51 42 40 43 39 35 37 38 38 40 44 51 58 60 46 50 82 81 64 52 54 66
81 75 63 57 49 43 40 43 44 50 55 54 49 51 47 44 39 55 66 60 74 79 74 69 74 89 96 89 74 69 65 51 41 42 50 46 41 39 38 39 42 56 59 61 62 58 46 72 89 78 61 46 50 56
98 66 66 46 47 47 49 55 57 66 78 77 78 79 68 57 52 47 66 72 61 65 70 73 85 92 96 96 90 52 38 37 37 40 39 40 39 40 40 42 62 68 70 74 68 48 51 88 91 76 62 52 47 55
86 60 54 56 57 67 85 94 92 93 89 84 89 87 74 70 62 63 84 82 90 86 80 71 67 65 58 46 46 52 52 47 44 46 49 52 59 67 74 75 75 88 81 72 53 43 70 94 89 78 75 70 64 64
58 54 53 62 62 72 87 92 91 89 95 96 98 99 92 84 82 87 86 99 95 96 82 78 71 66 61 58 63 70 78 81 81 81 81 81 80 81 84 86 84 79 70 53 44 53 86 93 87 85 85 87 87 82
50 53 56 65 71 81 86 93 94 96 100 99 98 92 92 97 99 99 98 98 90 71 63 66 75 80 82 81 74 67 64 66 68 70 74 77 84 86 88 84 76 65 51 43 48 79 92 94 91 90 91 92 94 96
81 77 79 76 79 83 86 85 87 100 95 99 99 99 98 98 98 97 85 65 79 86 86 87 87 80 68 58 58 60 66 70 72 76 79 77 79 75 72 70 66 57 52 57 86 94 92 96 94 91 91 92 93 94
84 77 76 85 94 98 97 84 93 98 89 91 99 100 100 99 85 62 60 73 87 94 98 88 72 62 67 77 82 87 81 82 83 84 84 84 77 67 62 60 60 64 77 94 100 100 100 100 100 100 100 100 99 98
85 88 87 86 94 97 99 96 98 100 100 100 97 98 87 74 67 76 86 96 98 99 86 73 70 73 77 80 83 93 94 88 88 88 87 86 82 80 81 88 94 97 97 98 100 100 100 100 99 98 98 99 98 97
91 93 82 66 83 92 97 97 99 100 100 98 97 92 82 83 86 87 92 90 93 91 81 78 84 91 92 81 81 88 86 87 90 95 98 100 100 100 100 99 98 99 100 100 100 97 97 99 100 100 100 98 97 96
41 45 48 63 80 59 49 44 51 58 60 58 57 65 77 86 93 96 99 100 99 93 90 95 93 88 79 74 81 84 82 83 91 94 99 100 98 98 99 99 100 100 100 98 97 98 99 99 99 99 98 97 96 96

GFSWCAN_700_rhum_186.txt.gz
RH
15 14 15 14 11 7 5 5 4 4 4 7 4 4 4 3 37 100 100 84 41 11 13 10 17 24 25 28 24 23 30 38 43 46 48 46 47 47 47 47 46 46 46 48 55 60 53 50 50 50 50 48 49 54
23 22 21 16 12 6 6 12 26 27 26 23 19 7 6 5 16 94 98 100 90 65 14 12 16 18 27 31 30 37 35 37 39 43 47 50 50 53 54 54 53 53 51 51 52 50 53 51 53 58 62 60 61 67
29 25 23 16 12 12 22 46 40 47 51 46 38 38 17 15 10 96 99 98 100 99 46 16 11 18 24 29 33 33 30 38 40 46 50 55 60 63 62 62 61 61 62 75 64 60 67 78 75 76 75 70 71 74
33 49 48 78 73 84 85 75 55 57 69 66 53 50 39 26 23 38 100 98 98 99 97 28 12 20 28 33 34 34 32 38 51 56 59 59 63 68 67 72 77 78 79 86 81 78 87 96 95 95 84 79 79 78
52 58 75 93 96 95 91 90 92 82 75 71 74 74 50 32 21 26 100 98 98 98 98 85 20 20 31 38 42 39 36 42 53 62 65 65 67 71 72 80 89 80 87 92 92 93 97 99 95 94 87 74 60 55
61 68 92 97 98 98 85 89 92 81 76 76 64 49 49 43 32 45 65 98 97 97 98 93 57 36 31 37 41 44 53 48 69 72 74 76 74 80 88 96 89 82 93 98 96 97 97 96 89 74 68 57 45 42
64 78 90 98 90 84 90 93 89 86 78 60 37 40 75 50 68 60 47 95 84 100 98 98 98 88 61 60 59 52 56 73 78 82 83 83 81 93 100 100 98 89 92 97 97 96 95 92 78 52 41 36 34 30
62 83 94 91 93 96 94 97 90 75 29 16 13 51 91 76 68 72 66 98 99 100 97 97 94 90 91 70 71 75 76 81 100 95 93 83 91 99 99 97 99 96 96 96 96 95 84 56 39 30 29 27 24 22
67 86 97 95 96 94 95 96 94 66 94 98 100 99 100 100 97 43 95 98 97 98 97 97 94 99 100 92 88 96 98 100 98 97 97 98 99 97 95 94 93 95 96 95 94 71 38 30 28 25 21 16 14 15
72 90 100 97 93 93 97 96 96 99 98 97 97 99 99 92 35 88 97 98 97 98 97 97 98 95 95 89 91 99 100 97 96 92 96 99 97 95 96 95 96 96 95 95 56 30 24 21 18 14 13 15 16 16
76 93 99 92 97 87 96 96 96 99 90 89 100 98 91 58 92 98 97 97 96 97 98 97 94 90 94 89 92 99 97 96 96 95 97 96 96 96 97 96 96 95 90 42 26 21 17 15 15 18 20 19 20 22
74 92 94 95 100 90 95 96 96 97 100 95 83 94 98 96 96 96 96 96 95 95 97 97 88 100 97 98 98 97 96 95 95 98 98 95 91 91 96 95 94 71 34 25 21 17 18 23 26 26 26 28 30 31
80 92 82 100 100 90 93 95 96 96 98 98 96 96 96 96 96 96 96 96 95 96 79 80 95 100 98 97 96 95 95 95 95 97 95 90 88 94 94 91 50 35 26 21 18 23 31 33 32 30 26 24 24 28
90 94 67 95 100 93 89 93 96 96 96 94 95 95 95 96 96 98 83 78 77 69 87 100 98 98 96 97 95 95 96 95 96 96 78 66 94 94 82 53 35 28 20 21 27 27 25 22 23 24 26 26 25 22
90 78 46 49 93 100 94 91 91 94 96 96 96 95 96 98 100 93 84 76 77 87 94 99 99 95 96 95 95 94 96 95 93 63 54 84 93 85 47 31 21 20 21 21 20 20 21 22 23 24 21 19 22 27
83 69 47 36 58 96 96 82 80 94 93 94 96 96 97 97 98 98 98 93 99 100 99 99 95 95 95 95 95 95 95 79 55 61 87 70 45 28 20 19 20 20 20 21 21 21 23 22 18 22 32 34 34 36
87 71 49 42 32 62 90 80 62 69 95 95 97 97 97 96 97 97 97 96 96 97 96 96 94 95 95 95 95 92 90 82 72 46 37 24 19 19 21 22 22 24 24 23 25 24 18 21 35 37 35 36 37 38
81 62 51 46 39 30 85 77 68 88 95 96 95 97 96 96 96 96 96 96 96 96 95 93 94 95 88 87 94 90 67 40 29 21 22 22 23 24 25 26 26 25 26 27 20 17 23 34 38 36 34 36 33 32
67 63 53 48 40 27 83 86 78 98 99 96 96 96 96 96 97 97 96 96 96 94 80 58 61 65 48 37 42 28 22 22 20 21 23 24 25 27 28 28 28 28 26 20 18 20 23 28 29 33 38 34 35 60
77 64 55 48 39 24 38 90 85 97 98 100 100 98 92 93 95 95 96 94 89 62 42 23 23 25 25 30 32 25 23 25 28 29 31 30 30 29 29 28 29 29 23 20 23 27 30 31 36 42 38 38 63 54
69 53 49 42 36 33 30 34 61 69 89 94 95 96 98 97 95 96 92 89 76 52 47 53 52 50 49 41 35 35 36 40 44 45 42 37 34 31 30 33 34 28 21 22 28 31 32 33 39 42 36 67 62 43
56 46 42 41 35 35 41 40 38 37 40 37 41 76 84 91 96 96 93 83 73 58 62 65 66 62 59 66 60 48 47 51 52 49 46 43 40 40 42 39 32 26 22 25 30 31 36 44 50 40 46 72 58 41
52 44 41 37 35 39 45 41 38 38 43 43 36 34 39 39 65 79 85 94 98 97 90 70 66 71 69 68 74 70 62 58 58 58 52 47 46 47 44 35 27 23 26 29 33 45 54 61 53 41 66 77 61 48
56 46 40 32 36 40 42 43 45 46 48 42 41 43 42 43 52 69 70 80 88 88 87 91 95 92 87 86 90 85 77 71 69 55 40 35 36 34 31 27 24 24 30 39 54 60 69 68 47 48 82 79 68 57
70 49 44 43 47 55 60 64 60 71 83 71 63 59 58 49 42 51 78 88 83 76 74 77 84 92 100 98 98 97 94 59 41 39 39 35 32 31 32 35 41 50 62 66 67 73 76 58 45 68 88 81 76 71
55 49 53 51 55 69 83 93 88 84 81 83 83 80 65 63 58 72 78 98 89 83 82 81 90 93 94 86 74 59 47 50 49 46 51 59 63 65 64 65 69 74 80 89 87 81 64 44 52 87 93 91 88 83
52 50 58 60 68 71 91 96 97 96 96 96 94 88 77 74 77 82 98 99 97 99 92 86 80 70 64 59 60 61 63 65 65 59 55 52 51 52 56 62 73 85 93 92 83 67 44 48 83 94 95 99 96 90
53 58 59 72 78 71 84 96 96 97 97 97 98 89 90 95 100 95 100 100 98 96 88 78 78 80 79 74 68 60 55 52 51 55 62 67 73 78 77 69 65 68 71 68 54 45 54 85 93 94 96 97 97 96
82 82 80 82 83 81 87 85 98 100 100 100 100 100 100 99 99 98 97 93 93 92 87 90 88 80 70 58 58 62 66 71 74 77 80 82 84 78 76 73 65 57 52 53 59 76 90 94 94 94 93 92 92 94
90 88 85 91 93 94 98 88 97 100 100 100 100 99 99 98 91 67 62 68 78 93 98 95 82 69 68 77 80 73 75 76 75 77 82 86 87 84 75 70 67 69 77 91 99 100 98 95 94 94 96 99 100 100
85 88 93 93 88 91 98 98 97 100 100 100 100 100 100 94 82 82 90 93 96 96 94 85 76 76 82 79 72 71 76 77 78 80 88 94 95 96 98 99 99 99 100 99 98 97 96 97 98 99 100 99 98 98
87 91 93 73 74 92 98 98 100 98 94 92 97 97 97 90 84 85 97 96 96 98 96 84 84 89 80 69 66 66 74 78 80 87 97 96 97 97 97 96 95 96 96 96 97 98 99 99 99 98 98 98 98 99
40 42 48 55 80 76 59 52 63 76 81 82 76 67 63 74 80 94 99 100 100 100 100 96 92 75 69 69 66 72 76 75 74 86 98 99 99 98 99 98 97 97 98 99 100 100 100 98 97 97 98 98 98 95

GFSWCAN_700_rhum_192.txt.gz
RH
4 4 4 6 7 8 9 8 10 7 7 9 13 14 13 11 9 8 22 20 40 25 32 100 99 98 91 98 97 51 27 19 36 45 47 49 44 38 39 38 39 42 44 47 52 58 57 49 52 52 50 48 47 43
5 5 5 7 12 18 17 16 17 29 59 63 60 100 99 38 28 48 68 83 80 80 10 54 100 98 98 98 99 89 45 37 28 32 38 40 41 38 36 40 36 44 44 43 44 47 52 55 58 62 71 55 50 50
6 6 6 12 19 20 21 20 43 78 69 87 95 94 88 81 78 85 78 63 79 83 52 39 7 85 97 98 98 97 76 62 53 53 45 43 40 39 38 38 40 39 43 50 49 50 58 61 59 62 75 61 67 80
7 7 8 14 23 27 24 22 47 62 61 76 86 84 81 84 86 92 98 82 100 100 98 34 27 23 57 97 98 98 99 85 58 52 60 54 48 46 44 40 41 42 49 54 55 59 61 58 56 64 72 80 76 88
8 7 8 10 14 19 19 24 51 64 64 73 79 82 82 83 88 100 100 97 100 100 96 60 62 27 22 80 96 89 95 98 93 76 71 68 63 57 51 49 48 44 45 50 50 57 61 57 62 57 69 82 92 92
8 10 12 18 26 25 26 38 66 69 72 76 81 86 79 80 91 100 96 82 74 86 100 86 64 65 63 64 76 98 98 98 97 75 73 79 69 67 62 60 44 41 48 54 51 51 60 54 62 64 85 98 97 100
10 14 16 21 28 34 32 56 70 70 78 82 86 86 82 83 100 98 96 75 86 94 100 99 100 61 43 29 86 93 98 98 98 96 84 75 83 79 70 64 59 52 51 56 53 64 62 60 68 81 99 99 100 98
13 19 23 24 33 38 35 63 63 69 85 85 74 70 75 84 96 91 52 66 100 99 99 99 98 98 85 44 63 95 98 98 98 97 96 100 98 95 88 67 70 68 64 69 68 77 63 64 74 95 100 98 96 89
46 56 53 44 45 38 56 58 65 84 84 76 71 78 73 69 70 80 98 98 99 97 98 95 92 94 89 70 58 61 98 98 97 97 97 100 100 98 79 76 69 57 60 61 75 74 68 68 92 99 97 94 82 62
53 57 55 51 43 50 58 62 87 79 83 76 91 93 89 95 96 97 97 97 96 96 96 94 78 96 80 60 83 100 97 97 97 95 96 96 90 85 78 81 79 75 77 78 78 71 69 90 99 95 86 66 41 38
52 51 53 45 47 57 60 78 59 73 83 92 95 84 87 97 97 96 97 95 96 95 92 77 79 90 85 71 58 97 97 97 97 96 96 97 96 99 92 88 89 92 92 94 96 93 94 97 89 67 43 24 24 20
49 42 35 54 59 58 76 50 35 51 88 96 98 92 86 96 96 96 96 96 89 90 81 86 68 76 95 75 80 77 97 93 96 89 99 90 75 78 86 98 100 95 100 98 97 97 94 82 60 31 20 25 18 14
31 36 58 60 57 66 61 44 34 73 95 96 97 98 93 95 96 96 95 97 99 84 82 96 100 100 100 96 96 96 96 94 87 99 90 75 78 86 96 99 100 100 97 97 97 89 66 52 25 34 23 12 12 11
49 67 65 61 54 63 50 41 33 81 95 96 97 97 95 90 99 96 93 99 100 86 76 80 94 99 95 98 94 96 96 95 91 80 78 76 75 79 88 100 97 96 96 96 93 80 42 57 39 13 12 10 10 10
78 75 70 62 61 51 41 37 48 93 96 97 97 97 97 98 99 94 83 92 96 97 98 97 98 90 96 92 87 92 92 95 90 70 68 69 78 85 99 97 96 96 95 94 76 79 43 15 12 10 9 9 9 12
79 71 78 68 48 40 35 32 78 98 98 97 96 98 100 100 100 99 94 95 95 97 98 97 96 96 88 94 94 90 93 75 70 71 66 68 87 98 96 97 96 96 95 90 43 17 14 12 11 9 9 10 13 16
90 84 72 58 42 32 32 36 93 97 96 97 97 98 98 97 97 98 96 97 97 98 95 97 95 95 95 95 95 87 84 69 67 73 76 82 96 96 96 95 95 93 56 20 17 14 12 11 9 10 11 14 18 21
82 71 64 44 33 30 29 92 97 95 96 97 96 97 98 96 96 97 97 97 96 96 96 95 96 97 96 96 95 84 80 80 84 94 100 98 96 95 95 91 51 25 19 18 15 15 14 12 11 13 15 19 22 23
67 59 45 34 29 31 46 97 96 96 97 97 98 98 97 96 96 96 96 96 96 96 94 96 96 95 96 95 89 91 92 99 96 96 95 96 94 72 43 29 23 22 22 20 19 17 15 13 13 16 18 22 23 26
58 44 41 35 32 34 92 96 96 98 96 97 98 98 95 84 73 91 97 96 96 91 93 95 96 97 97 97 97 97 96 96 91 85 68 53 44 33 30 29 28 26 24 22 21 19 18 16 16 18 22 25 28 34
42 37 36 32 34 62 95 96 96 96 97 97 98 93 98 72 67 94 96 97 88 88 97 98 97 97 99 92 78 69 61 52 40 29 25 27 33 37 34 31 30 27 26 25 24 24 22 19 20 23 27 32 37 40
38 36 29 30 34 42 48 65 90 89 92 97 97 96 95 98 89 86 96 80 92 96 93 94 95 92 71 53 48 42 43 44 39 38 40 42 37 36 35 34 33 32 32 32 30 26 22 21 23 29 36 42 46 46
39 28 26 35 42 44 42 34 36 46 57 80 95 96 99 98 97 94 90 94 96 93 87 82 78 74 61 62 62 55 54 55 48 47 46 44 42 40 40 40 40 39 37 33 29 26 26 31 37 41 45 50 55 58
42 32 37 46 53 60 60 52 37 40 42 49 82 96 97 97 98 94 96 97 98 98 98 98 98 97 88 80 77 71 67 65 67 65 62 54 46 42 39 37 34 32 31 32 36 43 45 46 47 47 49 61 68 62
36 37 43 53 63 65 67 68 68 67 54 42 41 63 94 97 96 96 97 98 98 97 97 97 97 97 98 97 97 98 96 89 83 70 50 45 46 46 44 44 47 52 55 53 47 44 44 45 46 56 74 78 73 49
40 49 52 61 72 83 87 86 82 75 69 65 57 61 69 80 97 98 99 100 99 99 98 98 98 99 98 98 98 99 99 99 97 89 71 58 52 49 46 44 43 44 45 49 54 60 58 60 75 83 83 73 52 58
51 64 62 66 70 88 96 94 91 89 85 82 68 61 59 73 95 100 100 99 99 99 99 98 98 97 96 85 77 75 70 65 60 53 49 47 45 44 46 52 57 62 65 66 67 76 74 70 70 67 58 55 80 96
65 69 74 76 79 88 93 94 94 96 93 86 78 82 86 88 99 99 99 100 100 98 98 100 99 93 84 75 65 60 57 54 52 51 52 55 58 63 67 70 69 64 62 60 64 70 65 58 53 59 88 100 100 100
82 87 82 81 84 89 92 94 98 100 100 92 81 68 75 85 90 96 100 100 100 100 100 100 96 88 73 65 66 65 63 59 56 57 63 66 70 73 79 83 84 86 80 69 61 60 75 92 100 100 100 100 100 100
88 87 82 86 85 93 96 98 98 97 97 89 80 80 84 88 92 96 96 94 95 99 100 97 91 76 72 72 71 60 54 53 56 63 69 73 76 84 88 90 92 93 94 96 96 94 96 98 98 98 98 98 98 97
87 78 82 86 84 96 98 100 100 99 99 99 98 100 95 88 91 98 100 100 100 100 100 100 92 83 84 82 66 62 58 58 62 70 74 74 81 93 95 95 96 97 97 97 98 98 97 98 99 98 98 97 96 95
90 88 88 64 71 98 100 100 100 100 100 100 100 100 100 100 100 97 100 100 100 96 98 98 98 93 93 76 70 71 68 66 74 76 73 73 86 92 93 94 97 98 97 97 95 94 95 98 98 98 98 96 95 85
43 44 48 65 87 82 67 64 93 97 99 100 100 100 100 100 99 93 99 100 100 100 99 99 100 100 98 90 74 75 69 65 72 75 74 78 92 95 96 96 97 98 98 97 97 98 99 98 98 97 96 88 67 72